Location: ???? ??
(36.0534°N, 43.5630°E)
Time: 15:46:00
(UTC+00:00)

Cosmos 1707 - Pass Details

Date: 18 September 2019
Orbit: 517 x 530 km, 82.5° (Epoch: 16 October)

Event Time Altitude Azimuth Distance (km) Brightness Sun altitude
Rises 16:54:35 0° 349° (N) 2,675 6.7 -21.7°
Reaches altitude 10° 16:56:45 10° 346° (NNW) 1,782 5.8 -22.1°
Maximum altitude 17:00:38 64° 265° (W) 591 3.1 -22.8°
Enters shadow 17:01:35 45° 206° (SSW) 723 3.4 -23.0°
